Time,TemperatureF,DewpointF,PressureIn,WindDirection,WindDirectionDegrees,WindSpeedMPH,WindSpeedGustMPH,Humidity,HourlyPrecipIn,Conditions,Clouds,dailyrainin,SoftwareType,DateUTC
2013-02-22 00:01:00,66.0,64.2,30.21,SE,127,4.0,11.0,94,0.00,,,0.74,Wunderground v.1.15,2013-02-22 10:01:00,
2013-02-22 00:07:00,66.0,64.2,30.21,SE,129,3.0,11.0,94,0.00,,,0.74,Wunderground v.1.15,2013-02-22 10:07:00,
2013-02-22 00:13:00,66.0,64.2,30.21,ESE,123,3.0,11.0,94,0.00,,,0.74,Wunderground v.1.15,2013-02-22 10:13:00,
2013-02-22 00:19:00,66.1,64.6,30.21,ESE,123,3.0,11.0,95,0.00,,,0.74,Wunderground v.1.15,2013-02-22 10:19:00,
2013-02-22 00:24:00,66.1,64.6,30.21,ESE,123,3.0,7.0,95,0.00,,,0.74,Wunderground v.1.15,2013-02-22 10:24:00,
2013-02-22 00:30:00,66.2,64.7,30.20,ESE,115,3.0,3.0,95,0.00,,,0.74,Wunderground v.1.15,2013-02-22 10:30:00,
2013-02-22 00:36:00,66.3,64.8,30.21,East,94,3.0,11.0,95,0.00,,,0.74,Wunderground v.1.15,2013-02-22 10:36:00,
2013-02-22 00:41:00,66.4,64.9,30.20,ESE,108,4.0,11.0,95,0.00,,,0.74,Wunderground v.1.15,2013-02-22 10:41:00,
2013-02-22 00:47:00,66.4,64.6,30.20,ESE,103,4.0,11.0,94,0.00,,,0.74,Wunderground v.1.15,2013-02-22 10:47:00,
2013-02-22 00:52:00,66.4,64.6,30.20,East,84,3.0,10.0,94,0.00,,,0.74,Wunderground v.1.15,2013-02-22 10:52:00,
2013-02-22 00:58:00,66.5,64.7,30.20,East,97,4.0,10.0,94,0.00,,,0.74,Wunderground v.1.15,2013-02-22 10:58:00,
2013-02-22 01:03:00,66.4,64.6,30.20,SE,142,4.0,13.0,94,0.00,,,0.00,Wunderground v.1.15,2013-02-22 11:03:00,
2013-02-22 01:09:00,66.5,64.7,30.20,ESE,109,3.0,13.0,94,0.00,,,0.00,Wunderground v.1.15,2013-02-22 11:09:00,
2013-02-22 01:14:00,66.6,64.8,30.20,SE,130,3.0,13.0,94,0.00,,,0.00,Wunderground v.1.15,2013-02-22 11:14:00,
2013-02-22 01:20:00,66.4,64.6,30.20,SSE,148,6.0,6.0,94,0.00,,,0.01,Wunderground v.1.15,2013-02-22 11:20:00,
2013-02-22 01:26:00,66.2,64.4,30.20,SSE,147,5.0,12.0,94,0.10,,,0.02,Wunderground v.1.15,2013-02-22 11:26:00,
2013-02-22 01:31:00,66.1,64.3,30.20,East,96,6.0,17.0,94,0.09,,,0.02,Wunderground v.1.15,2013-02-22 11:31:00,
2013-02-22 01:37:00,66.1,64.3,30.20,East,87,6.0,17.0,94,0.05,,,0.02,Wunderground v.1.15,2013-02-22 11:37:00,
2013-02-22 01:43:00,66.0,64.2,30.19,ESE,108,5.0,17.0,94,0.00,,,0.02,Wunderground v.1.15,2013-02-22 11:43:00,
2013-02-22 01:48:00,65.9,64.1,30.19,SE,140,3.0,17.0,94,0.00,,,0.02,Wunderground v.1.15,2013-02-22 11:48:00,
2013-02-22 01:54:00,65.8,64.0,30.19,SE,142,2.0,17.0,94,0.00,,,0.02,Wunderground v.1.15,2013-02-22 11:54:00,
2013-02-22 02:00:00,65.8,64.3,30.19,SE,135,3.0,3.0,95,0.00,,,0.02,Wunderground v.1.15,2013-02-22 12:00:00,
2013-02-22 02:05:00,65.9,64.4,30.18,SE,140,4.0,9.0,95,0.00,,,0.02,Wunderground v.1.15,2013-02-22 12:05:00,
2013-02-22 02:10:00,66.0,64.5,30.18,SE,128,4.0,4.0,95,0.00,,,0.02,Wunderground v.1.15,2013-02-22 12:10:00,
2013-02-22 02:16:00,66.0,64.5,30.18,SE,134,4.0,9.0,95,0.00,,,0.02,Wunderground v.1.15,2013-02-22 12:16:00,
2013-02-22 02:21:00,66.0,64.5,30.17,SSE,157,5.0,11.0,95,0.00,,,0.02,Wunderground v.1.15,2013-02-22 12:21:00,
2013-02-22 02:27:00,66.0,64.5,30.18,SE,139,4.0,11.0,95,0.00,,,0.02,Wunderground v.1.15,2013-02-22 12:27:00,
2013-02-22 02:33:00,66.0,64.5,30.17,ESE,121,3.0,11.0,95,0.00,,,0.02,Wunderground v.1.15,2013-02-22 12:33:00,
2013-02-22 02:38:00,66.1,64.6,30.16,SE,144,4.0,11.0,95,0.00,,,0.02,Wunderground v.1.15,2013-02-22 12:38:00,
2013-02-22 02:44:00,66.1,64.6,30.16,SE,135,4.0,11.0,95,0.00,,,0.02,Wunderground v.1.15,2013-02-22 12:44:00,
2013-02-22 02:50:00,66.1,64.6,30.16,SSE,150,4.0,13.0,95,0.00,,,0.02,Wunderground v.1.15,2013-02-22 12:50:00,
2013-02-22 02:55:00,66.3,64.8,30.16,ESE,111,5.0,13.0,95,0.00,,,0.02,Wunderground v.1.15,2013-02-22 12:55:00,
2013-02-22 03:01:00,66.3,64.8,30.16,ESE,115,4.0,13.0,95,0.00,,,0.02,Wunderground v.1.15,2013-02-22 13:01:00,
2013-02-22 03:06:00,66.4,64.9,30.16,SE,132,4.0,13.0,95,0.00,,,0.02,Wunderground v.1.15,2013-02-22 13:06:00,
2013-02-22 03:12:00,66.5,65.0,30.16,North,360,3.0,12.0,95,0.00,,,0.02,Wunderground v.1.15,2013-02-22 13:12:00,
2013-02-22 03:17:00,66.5,65.0,30.16,ESE,103,2.0,12.0,95,0.00,,,0.02,Wunderground v.1.15,2013-02-22 13:17:00,
2013-02-22 03:23:00,66.5,65.0,30.15,SE,134,3.0,11.0,95,0.00,,,0.02,Wunderground v.1.15,2013-02-22 13:23:00,
2013-02-22 03:28:00,66.5,65.0,30.15,SE,144,4.0,11.0,95,0.00,,,0.02,Wunderground v.1.15,2013-02-22 13:28:00,
2013-02-22 03:33:00,66.4,64.6,30.15,ESE,107,4.0,10.0,94,0.00,,,0.02,Wunderground v.1.15,2013-02-22 13:33:00,
2013-02-22 03:39:00,66.4,64.6,30.15,ESE,111,4.0,10.0,94,0.00,,,0.02,Wunderground v.1.15,2013-02-22 13:39:00,
2013-02-22 03:44:00,66.5,64.7,30.15,ESE,121,3.0,9.0,94,0.00,,,0.03,Wunderground v.1.15,2013-02-22 13:44:00,
2013-02-22 03:50:00,66.5,64.7,30.15,ENE,72,3.0,13.0,94,0.51,,,0.16,Wunderground v.1.15,2013-02-22 13:50:00,
2013-02-22 03:56:00,66.3,64.8,30.15,SSE,150,4.0,13.0,95,0.08,,,0.16,Wunderground v.1.15,2013-02-22 13:56:00,
2013-02-22 04:01:00,66.2,64.7,30.15,SE,135,4.0,11.0,95,0.05,,,0.16,Wunderground v.1.15,2013-02-22 14:01:00,
2013-02-22 04:07:00,66.1,64.6,30.15,SE,134,3.0,11.0,95,0.00,,,0.16,Wunderground v.1.15,2013-02-22 14:07:00,
2013-02-22 04:13:00,65.9,64.4,30.15,SE,138,3.0,11.0,95,0.00,,,0.17,Wunderground v.1.15,2013-02-22 14:13:00,
2013-02-22 04:19:00,65.8,64.3,30.15,SSE,150,4.0,11.0,95,0.00,,,0.17,Wunderground v.1.15,2013-02-22 14:19:00,
2013-02-22 04:24:00,65.7,64.2,30.14,SSE,153,5.0,11.0,95,0.00,,,0.17,Wunderground v.1.15,2013-02-22 14:24:00,
2013-02-22 04:30:00,65.7,64.2,30.14,SSE,152,4.0,4.0,95,0.00,,,0.17,Wunderground v.1.15,2013-02-22 14:30:00,
2013-02-22 04:36:00,65.7,64.5,30.15,SSE,155,2.0,11.0,96,0.00,,,0.18,Wunderground v.1.15,2013-02-22 14:36:00,
2013-02-22 04:41:00,65.6,64.4,30.15,ENE,77,2.0,10.0,96,0.19,,,0.20,Wunderground v.1.15,2013-02-22 14:41:00,
2013-02-22 04:47:00,65.3,63.8,30.15,ESE,115,3.0,13.0,95,0.09,,,0.20,Wunderground v.1.15,2013-02-22 14:47:00,
2013-02-22 04:52:00,65.2,63.7,30.15,SE,124,4.0,13.0,95,0.05,,,0.20,Wunderground v.1.15,2013-02-22 14:52:00,
2013-02-22 04:58:00,65.2,64.0,30.14,SSE,147,4.0,13.0,96,0.00,,,0.20,Wunderground v.1.15,2013-02-22 14:58:00,
2013-02-22 05:03:00,65.3,64.1,30.14,SSE,155,4.0,11.0,96,0.00,,,0.21,Wunderground v.1.15,2013-02-22 15:03:00,
2013-02-22 05:09:00,65.4,64.2,30.14,SSE,152,4.0,11.0,96,0.00,,,0.21,Wunderground v.1.15,2013-02-22 15:09:00,
2013-02-22 05:15:00,65.6,64.4,30.14,ESE,117,4.0,11.0,96,0.00,,,0.21,Wunderground v.1.15,2013-02-22 15:15:00,
2013-02-22 05:21:00,65.6,64.4,30.14,SE,128,2.0,12.0,96,0.00,,,0.21,Wunderground v.1.15,2013-02-22 15:21:00,
2013-02-22 05:26:00,65.6,64.4,30.14,ESE,123,4.0,12.0,96,0.00,,,0.21,Wunderground v.1.15,2013-02-22 15:26:00,
2013-02-22 05:32:00,65.6,64.4,30.14,SE,138,4.0,13.0,96,0.00,,,0.21,Wunderground v.1.15,2013-02-22 15:32:00,
2013-02-22 05:38:00,65.6,64.4,30.15,SSE,165,3.0,13.0,96,0.00,,,0.21,Wunderground v.1.15,2013-02-22 15:38:00,
2013-02-22 05:43:00,65.6,64.4,30.14,SSE,155,3.0,13.0,96,0.00,,,0.21,Wunderground v.1.15,2013-02-22 15:43:00,
2013-02-22 05:49:00,65.6,64.4,30.14,SSE,154,2.0,13.0,96,0.00,,,0.21,Wunderground v.1.15,2013-02-22 15:49:00,
2013-02-22 05:55:00,65.6,64.4,30.14,SE,136,2.0,9.0,96,0.00,,,0.21,Wunderground v.1.15,2013-02-22 15:55:00,
2013-02-22 06:00:00,65.7,64.5,30.15,SSE,156,2.0,11.0,96,0.00,,,0.22,Wunderground v.1.15,2013-02-22 16:00:00,
2013-02-22 06:05:00,65.5,64.3,30.15,ESE,102,4.0,15.0,96,0.00,,,0.22,Wunderground v.1.15,2013-02-22 16:05:00,
2013-02-22 06:11:00,65.5,64.0,30.15,East,82,5.0,15.0,95,0.00,,,0.22,Wunderground v.1.15,2013-02-22 16:11:00,
2013-02-22 06:16:00,65.5,64.0,30.15,ENE,71,4.0,15.0,95,0.00,,,0.22,Wunderground v.1.15,2013-02-22 16:16:00,
2013-02-22 06:22:00,65.6,64.1,30.15,ESE,119,4.0,12.0,95,0.00,,,0.22,Wunderground v.1.15,2013-02-22 16:22:00,
2013-02-22 06:27:00,65.6,64.1,30.15,ESE,118,3.0,12.0,95,0.00,,,0.22,Wunderground v.1.15,2013-02-22 16:27:00,
2013-02-22 06:33:00,65.7,64.2,30.15,SE,140,3.0,8.0,95,0.00,,,0.22,Wunderground v.1.15,2013-02-22 16:33:00,
2013-02-22 06:39:00,65.8,64.3,30.15,SE,136,3.0,8.0,95,0.00,,,0.22,Wunderground v.1.15,2013-02-22 16:39:00,
2013-02-22 06:44:00,65.9,64.4,30.16,East,96,3.0,8.0,95,0.00,,,0.22,Wunderground v.1.15,2013-02-22 16:44:00,
2013-02-22 06:50:00,65.9,64.4,30.16,SE,138,3.0,3.0,95,0.00,,,0.22,Wunderground v.1.15,2013-02-22 16:50:00,
2013-02-22 06:55:00,65.9,64.4,30.16,SE,134,4.0,7.0,95,0.00,,,0.22,Wunderground v.1.15,2013-02-22 16:55:00,
2013-02-22 07:01:00,66.0,64.5,30.16,SSE,148,3.0,9.0,95,0.00,,,0.22,Wunderground v.1.15,2013-02-22 17:01:00,
2013-02-22 07:07:00,65.9,64.4,30.17,ESE,108,2.0,9.0,95,0.00,,,0.22,Wunderground v.1.15,2013-02-22 17:07:00,
2013-02-22 07:12:00,65.9,64.4,30.17,SE,140,3.0,9.0,95,0.00,,,0.22,Wunderground v.1.15,2013-02-22 17:12:00,
2013-02-22 07:18:00,65.8,64.3,30.17,ESE,105,4.0,11.0,95,0.00,,,0.22,Wunderground v.1.15,2013-02-22 17:18:00,
2013-02-22 07:24:00,65.9,64.4,30.17,ESE,117,4.0,11.0,95,0.00,,,0.22,Wunderground v.1.15,2013-02-22 17:24:00,
2013-02-22 07:29:00,65.9,64.4,30.17,ESE,121,3.0,11.0,95,0.00,,,0.22,Wunderground v.1.15,2013-02-22 17:29:00,
2013-02-22 07:35:00,66.0,64.5,30.17,ESE,122,3.0,11.0,95,0.00,,,0.22,Wunderground v.1.15,2013-02-22 17:35:00,
2013-02-22 07:41:00,66.1,64.6,30.18,SE,132,5.0,11.0,95,0.00,,,0.23,Wunderground v.1.15,2013-02-22 17:41:00,
2013-02-22 07:46:00,65.9,64.4,30.18,ESE,120,7.0,18.0,95,0.00,,,0.23,Wunderground v.1.15,2013-02-22 17:46:00,
2013-02-22 07:52:00,65.8,64.3,30.19,ESE,116,7.0,18.0,95,0.00,,,0.23,Wunderground v.1.15,2013-02-22 17:52:00,
2013-02-22 07:57:00,65.7,64.2,30.18,SSE,149,6.0,18.0,95,0.00,,,0.23,Wunderground v.1.15,2013-02-22 17:57:00,
2013-02-22 08:03:00,65.7,64.2,30.18,SSE,167,4.0,17.0,95,0.00,,,0.23,Wunderground v.1.15,2013-02-22 18:03:00,
2013-02-22 08:09:00,65.8,64.3,30.18,SE,141,2.0,17.0,95,0.00,,,0.23,Wunderground v.1.15,2013-02-22 18:09:00,
2013-02-22 08:15:00,65.8,64.3,30.18,South,173,2.0,17.0,95,0.00,,,0.23,Wunderground v.1.15,2013-02-22 18:15:00,
2013-02-22 08:20:00,66.0,64.5,30.19,SSW,197,3.0,9.0,95,0.00,,,0.24,Wunderground v.1.15,2013-02-22 18:20:00,
2013-02-22 08:26:00,65.9,64.4,30.19,ESE,109,7.0,18.0,95,0.62,,,0.35,Wunderground v.1.15,2013-02-22 18:26:00,
2013-02-22 08:32:00,66.1,64.9,30.20,SSE,152,7.0,37.0,96,0.14,,,0.37,Wunderground v.1.15,2013-02-22 18:32:00,
2013-02-22 08:37:00,66.6,65.7,30.20,ESE,118,4.0,37.0,97,0.06,,,0.37,Wunderground v.1.15,2013-02-22 18:37:00,
2013-02-22 08:43:00,67.1,66.2,30.20,East,83,4.0,37.0,97,0.04,,,0.37,Wunderground v.1.15,2013-02-22 18:43:00,
2013-02-22 08:49:00,67.2,66.0,30.20,SE,142,5.0,37.0,96,0.00,,,0.37,Wunderground v.1.15,2013-02-22 18:49:00,
2013-02-22 08:54:00,67.2,66.0,30.20,ESE,103,5.0,15.0,96,0.00,,,0.37,Wunderground v.1.15,2013-02-22 18:54:00,
2013-02-22 09:00:00,67.2,66.0,30.20,SE,127,4.0,15.0,96,0.00,,,0.37,Wunderground v.1.15,2013-02-22 19:00:00,
2013-02-22 09:05:00,67.3,66.1,30.20,ESE,123,4.0,17.0,96,0.00,,,0.37,Wunderground v.1.15,2013-02-22 19:05:00,
2013-02-22 09:10:00,67.2,66.0,30.20,ESE,122,4.0,4.0,96,0.00,,,0.37,Wunderground v.1.15,2013-02-22 19:10:00,
2013-02-22 09:16:00,67.2,66.0,30.20,SE,144,5.0,17.0,96,0.72,,,0.40,Wunderground v.1.15,2013-02-22 19:16:00,
2013-02-22 09:22:00,67.2,66.0,30.20,ESE,123,5.0,14.0,96,0.10,,,0.40,Wunderground v.1.15,2013-02-22 19:22:00,
2013-02-22 09:28:00,67.3,66.1,30.20,East,92,4.0,15.0,96,0.05,,,0.40,Wunderground v.1.15,2013-02-22 19:28:00,
2013-02-22 09:33:00,67.3,66.1,30.20,SSE,155,4.0,18.0,96,0.00,,,0.40,Wunderground v.1.15,2013-02-22 19:33:00,
2013-02-22 09:38:00,67.4,66.2,30.21,ESE,111,5.0,18.0,96,0.00,,,0.40,Wunderground v.1.15,2013-02-22 19:38:00,
2013-02-22 09:44:00,67.4,66.2,30.21,ESE,110,7.0,18.0,96,0.00,,,0.41,Wunderground v.1.15,2013-02-22 19:44:00,
2013-02-22 09:50:00,67.4,65.9,30.21,SE,125,7.0,7.0,95,0.00,,,0.41,Wunderground v.1.15,2013-02-22 19:50:00,
2013-02-22 09:55:00,68.0,66.8,30.21,SSE,160,7.0,22.0,96,0.33,,,0.43,Wunderground v.1.15,2013-02-22 19:55:00,
2013-02-22 10:01:00,68.5,67.3,30.21,SSE,154,6.0,18.0,96,0.09,,,0.43,Wunderground v.1.15,2013-02-22 20:01:00,
2013-02-22 10:07:00,68.2,66.7,30.20,SE,128,7.0,19.0,95,0.18,,,0.46,Wunderground v.1.15,2013-02-22 20:07:00,
2013-02-22 10:12:00,68.8,67.6,30.21,ESE,110,8.0,18.0,96,0.07,,,0.46,Wunderground v.1.15,2013-02-22 20:12:00,
2013-02-22 10:18:00,69.0,67.5,30.21,SSE,158,8.0,23.0,95,0.04,,,0.46,Wunderground v.1.15,2013-02-22 20:18:00,
2013-02-22 10:24:00,69.4,67.9,30.20,ESE,107,7.0,23.0,95,0.00,,,0.46,Wunderground v.1.15,2013-02-22 20:24:00,
2013-02-22 10:29:00,69.5,67.4,30.20,East,101,7.0,23.0,93,0.00,,,0.46,Wunderground v.1.15,2013-02-22 20:29:00,
2013-02-22 10:35:00,69.6,67.5,30.20,East,99,6.0,18.0,93,0.00,,,0.46,Wunderground v.1.15,2013-02-22 20:35:00,
2013-02-22 10:41:00,69.2,66.5,30.20,SSE,148,7.0,18.0,91,0.00,,,0.46,Wunderground v.1.15,2013-02-22 20:41:00,
2013-02-22 10:46:00,69.1,66.7,30.20,ESE,109,6.0,19.0,92,0.00,,,0.46,Wunderground v.1.15,2013-02-22 20:46:00,
2013-02-22 10:52:00,69.0,66.9,30.20,ENE,71,5.0,10.0,93,0.00,,,0.46,Wunderground v.1.15,2013-02-22 20:52:00,
2013-02-22 10:57:00,69.3,66.9,30.20,East,99,6.0,19.0,92,0.00,,,0.46,Wunderground v.1.15,2013-02-22 20:57:00,
2013-02-22 11:03:00,69.9,66.8,30.20,ESE,106,8.0,19.0,90,0.00,,,0.46,Wunderground v.1.15,2013-02-22 21:03:00,
2013-02-22 11:09:00,69.9,66.8,30.19,NE,40,8.0,19.0,90,0.00,,,0.46,Wunderground v.1.15,2013-02-22 21:09:00,
2013-02-22 11:15:00,69.5,66.8,30.19,SE,125,7.0,16.0,91,0.00,,,0.47,Wunderground v.1.15,2013-02-22 21:15:00,
2013-02-22 11:20:00,69.2,66.5,30.20,East,84,7.0,7.0,91,0.00,,,0.47,Wunderground v.1.15,2013-02-22 21:20:00,
2013-02-22 11:26:00,69.5,66.8,30.19,SE,125,6.0,20.0,91,0.00,,,0.47,Wunderground v.1.15,2013-02-22 21:26:00,
2013-02-22 11:32:00,69.8,66.7,30.19,East,81,6.0,20.0,90,0.00,,,0.47,Wunderground v.1.15,2013-02-22 21:32:00,
2013-02-22 11:37:00,69.7,66.6,30.19,East,90,5.0,20.0,90,0.00,,,0.47,Wunderground v.1.15,2013-02-22 21:37:00,
2013-02-22 11:43:00,69.7,67.3,30.19,SE,135,5.0,19.0,92,0.00,,,0.47,Wunderground v.1.15,2013-02-22 21:43:00,
2013-02-22 11:49:00,69.5,66.4,30.18,East,101,6.0,19.0,90,0.00,,,0.47,Wunderground v.1.15,2013-02-22 21:49:00,
2013-02-22 11:54:00,69.6,66.5,30.18,ENE,74,7.0,15.0,90,0.00,,,0.47,Wunderground v.1.15,2013-02-22 21:54:00,
2013-02-22 12:00:00,70.2,67.8,30.18,SE,130,7.0,14.0,92,0.00,,,0.47,Wunderground v.1.15,2013-02-22 22:00:00,
2013-02-22 12:05:00,70.6,67.2,30.18,East,87,7.0,18.0,89,0.00,,,0.47,Wunderground v.1.15,2013-02-22 22:05:00,
2013-02-22 12:10:00,70.6,67.2,30.18,East,84,6.0,6.0,89,0.00,,,0.47,Wunderground v.1.15,2013-02-22 22:10:00,
2013-02-22 12:16:00,70.2,67.1,30.17,SE,130,5.0,18.0,90,0.00,,,0.47,Wunderground v.1.15,2013-02-22 22:16:00,
2013-02-22 12:22:00,69.9,66.2,30.17,ESE,104,7.0,21.0,88,0.00,,,0.47,Wunderground v.1.15,2013-02-22 22:22:00,
2013-02-22 12:27:00,69.7,66.0,30.17,East,92,7.0,21.0,88,0.00,,,0.47,Wunderground v.1.15,2013-02-22 22:27:00,
2013-02-22 12:33:00,69.6,65.9,30.17,SSE,157,6.0,21.0,88,0.00,,,0.47,Wunderground v.1.15,2013-02-22 22:33:00,
2013-02-22 12:39:00,69.7,66.0,30.17,SE,126,6.0,21.0,88,0.00,,,0.47,Wunderground v.1.15,2013-02-22 22:39:00,
2013-02-22 12:44:00,70.4,67.0,30.16,ENE,67,8.0,20.0,89,0.00,,,0.47,Wunderground v.1.15,2013-02-22 22:44:00,
2013-02-22 12:50:00,71.1,67.0,30.16,East,86,8.0,8.0,87,0.00,,,0.47,Wunderground v.1.15,2013-02-22 22:50:00,
2013-02-22 12:55:00,71.0,66.9,30.16,East,95,8.0,24.0,87,0.00,,,0.48,Wunderground v.1.15,2013-02-22 22:55:00,
2013-02-22 13:01:00,69.8,66.4,30.16,NE,54,8.0,16.0,89,0.23,,,0.50,Wunderground v.1.15,2013-02-22 23:01:00,
2013-02-22 13:07:00,69.0,66.3,30.15,NNE,32,7.0,16.0,91,0.07,,,0.50,Wunderground v.1.15,2013-02-22 23:07:00,
2013-02-22 13:12:00,68.6,66.2,30.15,ESE,103,7.0,16.0,92,0.04,,,0.50,Wunderground v.1.15,2013-02-22 23:12:00,
2013-02-22 13:18:00,68.6,66.5,30.15,ENE,65,7.0,18.0,93,0.00,,,0.50,Wunderground v.1.15,2013-02-22 23:18:00,
2013-02-22 13:24:00,68.8,66.4,30.15,ESE,105,5.0,18.0,92,0.00,,,0.50,Wunderground v.1.15,2013-02-22 23:24:00,
2013-02-22 13:29:00,68.9,66.5,30.15,East,84,5.0,18.0,92,0.00,,,0.50,Wunderground v.1.15,2013-02-22 23:29:00,
2013-02-22 13:35:00,69.1,66.4,30.15,ESE,119,6.0,19.0,91,0.00,,,0.50,Wunderground v.1.15,2013-02-22 23:35:00,
2013-02-22 13:41:00,69.3,66.6,30.14,East,79,7.0,19.0,91,0.00,,,0.50,Wunderground v.1.15,2013-02-22 23:41:00,
2013-02-22 13:46:00,69.6,66.9,30.14,East,94,7.0,19.0,91,0.00,,,0.50,Wunderground v.1.15,2013-02-22 23:46:00,
2013-02-22 13:52:00,70.1,67.0,30.14,ENE,60,7.0,18.0,90,0.00,,,0.50,Wunderground v.1.15,2013-02-22 23:52:00,
2013-02-22 13:57:00,70.1,67.0,30.14,ENE,71,6.0,18.0,90,0.00,,,0.51,Wunderground v.1.15,2013-02-22 23:57:00,
2013-02-22 14:03:00,69.7,66.6,30.14,East,97,5.0,18.0,90,0.00,,,0.51,Wunderground v.1.15,2013-02-23 00:03:00,
2013-02-22 14:09:00,69.3,66.2,30.14,SSE,157,7.0,18.0,90,0.00,,,0.51,Wunderground v.1.15,2013-02-23 00:09:00,
2013-02-22 14:15:00,69.8,67.1,30.13,East,86,7.0,18.0,91,0.00,,,0.51,Wunderground v.1.15,2013-02-23 00:15:00,
2013-02-22 14:20:00,70.3,67.2,30.13,SE,128,7.0,7.0,90,0.00,,,0.51,Wunderground v.1.15,2013-02-23 00:20:00,
2013-02-22 14:26:00,70.5,67.1,30.13,ENE,58,6.0,16.0,89,0.00,,,0.52,Wunderground v.1.15,2013-02-23 00:26:00,
2013-02-22 14:31:00,70.6,67.8,30.13,ESE,112,5.0,9.0,91,0.00,,,0.52,Wunderground v.1.15,2013-02-23 00:31:00,
2013-02-22 14:37:00,69.3,65.9,30.13,SE,146,6.0,17.0,89,0.35,,,0.55,Wunderground v.1.15,2013-02-23 00:37:00,
2013-02-22 14:43:00,68.4,66.0,30.12,ENE,69,7.0,17.0,92,0.12,,,0.56,Wunderground v.1.15,2013-02-23 00:43:00,
2013-02-22 14:49:00,68.1,66.0,30.13,ESE,104,7.0,19.0,93,0.06,,,0.56,Wunderground v.1.15,2013-02-23 00:49:00,
2013-02-22 14:54:00,68.1,66.0,30.12,South,171,5.0,19.0,93,0.04,,,0.56,Wunderground v.1.15,2013-02-23 00:54:00,
2013-02-22 15:00:00,68.1,66.0,30.13,East,82,5.0,5.0,93,0.00,,,0.56,Wunderground v.1.15,2013-02-23 01:00:00,
2013-02-22 15:05:00,68.2,66.1,30.12,East,101,6.0,19.0,93,0.00,,,0.56,Wunderground v.1.15,2013-02-23 01:05:00,
2013-02-22 15:10:00,68.3,65.9,30.12,East,84,6.0,6.0,92,0.00,,,0.56,Wunderground v.1.15,2013-02-23 01:10:00,
2013-02-22 15:16:00,68.8,66.4,30.12,SE,133,7.0,19.0,92,0.00,,,0.56,Wunderground v.1.15,2013-02-23 01:16:00,
2013-02-22 15:22:00,69.0,65.9,30.12,ENE,65,6.0,21.0,90,0.00,,,0.56,Wunderground v.1.15,2013-02-23 01:22:00,
2013-02-22 15:27:00,68.9,65.5,30.12,SSE,148,6.0,21.0,89,0.00,,,0.56,Wunderground v.1.15,2013-02-23 01:27:00,
2013-02-22 15:33:00,69.2,66.1,30.12,NE,50,5.0,21.0,90,0.00,,,0.56,Wunderground v.1.15,2013-02-23 01:33:00,
2013-02-22 15:39:00,69.5,65.8,30.12,ENE,69,6.0,21.0,88,0.00,,,0.56,Wunderground v.1.15,2013-02-23 01:39:00,
2013-02-22 15:44:00,69.5,65.8,30.12,SE,128,7.0,15.0,88,0.00,,,0.56,Wunderground v.1.15,2013-02-23 01:44:00,
2013-02-22 15:50:00,69.5,65.8,30.12,ENE,75,6.0,6.0,88,0.00,,,0.56,Wunderground v.1.15,2013-02-23 01:50:00,
2013-02-22 15:56:00,69.5,65.5,30.12,ENE,76,5.0,19.0,87,0.00,,,0.56,Wunderground v.1.15,2013-02-23 01:56:00,
2013-02-22 16:01:00,69.4,65.7,30.13,NE,34,5.0,19.0,88,0.00,,,0.56,Wunderground v.1.15,2013-02-23 02:01:00,
2013-02-22 16:06:00,69.2,65.5,30.12,East,96,5.0,19.0,88,0.00,,,0.56,Wunderground v.1.15,2013-02-23 02:06:00,
2013-02-22 16:12:00,69.0,65.6,30.12,ENE,63,4.0,16.0,89,0.00,,,0.56,Wunderground v.1.15,2013-02-23 02:12:00,
2013-02-22 16:17:00,69.0,65.3,30.12,ENE,77,6.0,16.0,88,0.00,,,0.56,Wunderground v.1.15,2013-02-23 02:17:00,
2013-02-22 16:23:00,69.1,65.7,30.12,East,84,5.0,13.0,89,0.00,,,0.56,Wunderground v.1.15,2013-02-23 02:23:00,
2013-02-22 16:29:00,69.1,65.7,30.12,ENE,73,5.0,13.0,89,0.00,,,0.56,Wunderground v.1.15,2013-02-23 02:29:00,
2013-02-22 16:35:00,69.0,65.6,30.13,ENE,65,5.0,14.0,89,0.00,,,0.56,Wunderground v.1.15,2013-02-23 02:35:00,
2013-02-22 16:40:00,68.9,65.2,30.12,ESE,105,6.0,6.0,88,0.00,,,0.56,Wunderground v.1.15,2013-02-23 02:40:00,
2013-02-22 16:46:00,69.0,65.3,30.12,East,80,6.0,16.0,88,0.00,,,0.56,Wunderground v.1.15,2013-02-23 02:46:00,
2013-02-22 16:52:00,69.1,65.4,30.13,East,84,5.0,16.0,88,0.00,,,0.56,Wunderground v.1.15,2013-02-23 02:52:00,
2013-02-22 16:57:00,69.2,65.5,30.13,ENE,76,6.0,16.0,88,0.00,,,0.56,Wunderground v.1.15,2013-02-23 02:57:00,
2013-02-22 17:03:00,69.3,65.3,30.13,East,89,6.0,18.0,87,0.00,,,0.56,Wunderground v.1.15,2013-02-23 03:03:00,
2013-02-22 17:09:00,69.3,65.3,30.13,ENE,61,5.0,18.0,87,0.00,,,0.56,Wunderground v.1.15,2013-02-23 03:09:00,
2013-02-22 17:15:00,69.0,65.3,30.14,ESE,107,6.0,18.0,88,0.00,,,0.56,Wunderground v.1.15,2013-02-23 03:15:00,
2013-02-22 17:20:00,68.5,65.1,30.13,ESE,120,7.0,19.0,89,0.00,,,0.56,Wunderground v.1.15,2013-02-23 03:20:00,
2013-02-22 17:26:00,68.3,65.3,30.13,SE,129,6.0,19.0,90,0.00,,,0.56,Wunderground v.1.15,2013-02-23 03:26:00,
2013-02-22 17:31:00,68.2,65.2,30.14,ENE,63,5.0,19.0,90,0.00,,,0.56,Wunderground v.1.15,2013-02-23 03:31:00,
2013-02-22 17:37:00,68.3,65.3,30.14,ENE,76,5.0,19.0,90,0.00,,,0.56,Wunderground v.1.15,2013-02-23 03:37:00,
2013-02-22 17:43:00,68.1,65.1,30.14,South,183,4.0,18.0,90,0.00,,,0.57,Wunderground v.1.15,2013-02-23 03:43:00,
2013-02-22 17:49:00,68.0,65.0,30.14,SE,137,5.0,18.0,90,0.00,,,0.57,Wunderground v.1.15,2013-02-23 03:49:00,
2013-02-22 17:54:00,67.9,64.9,30.15,ESE,114,4.0,14.0,90,0.00,,,0.57,Wunderground v.1.15,2013-02-23 03:54:00,
2013-02-22 18:00:00,67.9,64.9,30.15,East,95,4.0,4.0,90,0.00,,,0.57,Wunderground v.1.15,2013-02-23 04:00:00,
2013-02-22 18:06:00,67.9,64.9,30.15,ESE,117,4.0,13.0,90,0.00,,,0.57,Wunderground v.1.15,2013-02-23 04:06:00,
2013-02-22 18:11:00,67.9,64.9,30.15,SE,137,4.0,13.0,90,0.00,,,0.57,Wunderground v.1.15,2013-02-23 04:11:00,
2013-02-22 18:17:00,67.9,64.5,30.15,SE,136,5.0,13.0,89,0.00,,,0.57,Wunderground v.1.15,2013-02-23 04:17:00,
2013-02-22 18:23:00,68.0,64.6,30.15,SE,129,5.0,13.0,89,0.00,,,0.57,Wunderground v.1.15,2013-02-23 04:23:00,
2013-02-22 18:28:00,68.0,64.6,30.15,SSE,148,5.0,13.0,89,0.00,,,0.57,Wunderground v.1.15,2013-02-23 04:28:00,
2013-02-22 18:33:00,67.9,64.5,30.15,SSE,153,5.0,13.0,89,0.00,,,0.57,Wunderground v.1.15,2013-02-23 04:33:00,
2013-02-22 18:39:00,67.6,64.6,30.15,SE,130,6.0,13.0,90,0.00,,,0.57,Wunderground v.1.15,2013-02-23 04:39:00,
2013-02-22 18:44:00,67.5,64.5,30.15,SE,126,6.0,13.0,90,0.00,,,0.57,Wunderground v.1.15,2013-02-23 04:44:00,
2013-02-22 18:50:00,67.4,64.7,30.15,SE,134,4.0,14.0,91,0.00,,,0.57,Wunderground v.1.15,2013-02-23 04:50:00,
2013-02-22 18:56:00,67.3,64.6,30.15,SE,138,4.0,14.0,91,0.00,,,0.57,Wunderground v.1.15,2013-02-23 04:56:00,
2013-02-22 19:00:00,67.3,64.6,30.15,SSE,147,4.0,4.0,91,0.00,,,0.57,Wunderground v.1.15,2013-02-23 05:00:00,
2013-02-22 19:01:00,67.3,64.3,30.16,SSE,152,4.0,7.0,90,0.00,,,0.57,Wunderground v.1.15,2013-02-23 05:01:00,
2013-02-22 19:04:00,67.2,64.2,30.15,SE,130,5.0,14.0,90,0.00,,,0.57,Wunderground v.1.15,2013-02-23 05:04:00,
2013-02-22 19:10:00,67.1,63.7,30.16,SSE,155,5.0,14.0,89,0.00,,,0.57,Wunderground v.1.15,2013-02-23 05:10:00,
2013-02-22 19:11:00,67.1,63.7,30.16,SE,139,5.0,14.0,89,0.00,,,0.57,Wunderground v.1.15,2013-02-23 05:11:00,
2013-02-22 19:17:00,67.0,63.6,30.16,SE,141,5.0,14.0,89,0.00,,,0.57,Wunderground v.1.15,2013-02-23 05:17:00,
2013-02-22 19:22:00,66.9,63.9,30.16,ESE,120,5.0,12.0,90,0.00,,,0.57,Wunderground v.1.15,2013-02-23 05:22:00,
2013-02-22 19:28:00,66.8,64.1,30.16,SSE,153,6.0,15.0,91,0.00,,,0.58,Wunderground v.1.15,2013-02-23 05:28:00,
2013-02-22 19:33:00,66.7,64.0,30.16,SE,139,6.0,17.0,91,0.00,,,0.58,Wunderground v.1.15,2013-02-23 05:33:00,
2013-02-22 19:38:00,66.6,63.9,30.16,SE,140,4.0,17.0,91,0.00,,,0.58,Wunderground v.1.15,2013-02-23 05:38:00,
2013-02-22 19:44:00,66.4,64.0,30.16,SE,144,2.0,17.0,92,0.00,,,0.58,Wunderground v.1.15,2013-02-23 05:44:00,
2013-02-22 19:49:00,66.3,63.9,30.16,East,93,4.0,17.0,92,0.00,,,0.58,Wunderground v.1.15,2013-02-23 05:49:00,
2013-02-22 19:55:00,66.4,64.0,30.17,ESE,108,5.0,12.0,92,0.00,,,0.58,Wunderground v.1.15,2013-02-23 05:55:00,
2013-02-22 20:01:00,66.5,64.4,30.17,SE,137,4.0,12.0,93,0.00,,,0.58,Wunderground v.1.15,2013-02-23 06:01:00,
2013-02-22 20:06:00,66.5,64.4,30.17,SE,126,4.0,14.0,93,0.00,,,0.58,Wunderground v.1.15,2013-02-23 06:06:00,
2013-02-22 20:11:00,66.5,64.4,30.17,East,85,3.0,14.0,93,0.00,,,0.58,Wunderground v.1.15,2013-02-23 06:11:00,
2013-02-22 20:17:00,66.6,64.5,30.17,SE,136,4.0,14.0,93,0.00,,,0.58,Wunderground v.1.15,2013-02-23 06:17:00,
2013-02-22 20:22:00,66.8,64.4,30.17,SE,145,5.0,13.0,92,0.00,,,0.58,Wunderground v.1.15,2013-02-23 06:22:00,
2013-02-22 20:28:00,66.8,64.4,30.17,East,91,5.0,13.0,92,0.00,,,0.58,Wunderground v.1.15,2013-02-23 06:28:00,
2013-02-22 20:33:00,66.8,64.4,30.18,SE,146,5.0,15.0,92,0.00,,,0.58,Wunderground v.1.15,2013-02-23 06:33:00,
2013-02-22 20:39:00,66.9,64.8,30.18,ESE,114,5.0,15.0,93,0.00,,,0.58,Wunderground v.1.15,2013-02-23 06:39:00,
2013-02-22 20:44:00,66.9,64.8,30.18,SE,142,5.0,15.0,93,0.00,,,0.58,Wunderground v.1.15,2013-02-23 06:44:00,
2013-02-22 20:50:00,66.9,64.8,30.18,East,92,4.0,4.0,93,0.00,,,0.58,Wunderground v.1.15,2013-02-23 06:50:00,
2013-02-22 20:56:00,66.9,64.5,30.19,ESE,105,4.0,15.0,92,0.00,,,0.58,Wunderground v.1.15,2013-02-23 06:56:00,
2013-02-22 21:02:00,66.9,64.5,30.19,SE,134,4.0,15.0,92,0.00,,,0.58,Wunderground v.1.15,2013-02-23 07:02:00,
2013-02-22 21:08:00,67.0,64.6,30.19,East,101,5.0,15.0,92,0.00,,,0.59,Wunderground v.1.15,2013-02-23 07:08:00,
2013-02-22 21:13:00,67.0,64.9,30.19,ESE,110,4.0,12.0,93,0.13,,,0.60,Wunderground v.1.15,2013-02-23 07:13:00,
2013-02-22 21:19:00,66.9,64.8,30.19,ESE,109,4.0,15.0,93,0.06,,,0.60,Wunderground v.1.15,2013-02-23 07:19:00,
2013-02-22 21:25:00,66.8,64.7,30.20,SE,142,5.0,15.0,93,0.04,,,0.60,Wunderground v.1.15,2013-02-23 07:25:00,
2013-02-22 21:31:00,66.8,64.7,30.20,NE,48,5.0,15.0,93,0.00,,,0.60,Wunderground v.1.15,2013-02-23 07:31:00,
2013-02-22 21:37:00,66.7,64.6,30.20,SE,127,5.0,15.0,93,0.00,,,0.60,Wunderground v.1.15,2013-02-23 07:37:00,
2013-02-22 21:43:00,66.7,64.6,30.20,SE,136,6.0,15.0,93,0.00,,,0.60,Wunderground v.1.15,2013-02-23 07:43:00,
2013-02-22 21:48:00,66.7,64.6,30.20,SE,133,5.0,15.0,93,0.00,,,0.60,Wunderground v.1.15,2013-02-23 07:48:00,
2013-02-22 21:54:00,66.7,64.6,30.20,East,99,4.0,13.0,93,0.00,,,0.60,Wunderground v.1.15,2013-02-23 07:54:00,
2013-02-22 21:59:00,66.7,64.6,30.20,ESE,106,5.0,13.0,93,0.00,,,0.60,Wunderground v.1.15,2013-02-23 07:59:00,
2013-02-22 22:04:00,66.7,64.6,30.21,East,90,5.0,13.0,93,0.00,,,0.60,Wunderground v.1.15,2013-02-23 08:04:00,
2013-02-22 22:10:00,66.7,64.6,30.20,ESE,114,5.0,13.0,93,0.12,,,0.62,Wunderground v.1.15,2013-02-23 08:10:00,
2013-02-22 22:15:00,66.7,64.9,30.20,ESE,102,4.0,13.0,94,0.06,,,0.62,Wunderground v.1.15,2013-02-23 08:15:00,
2013-02-22 22:21:00,66.6,64.8,30.20,SE,128,5.0,13.0,94,0.04,,,0.62,Wunderground v.1.15,2013-02-23 08:21:00,
2013-02-22 22:27:00,66.5,64.7,30.20,East,79,5.0,13.0,94,0.04,,,0.63,Wunderground v.1.15,2013-02-23 08:27:00,
2013-02-22 22:33:00,66.3,64.5,30.20,SSE,150,5.0,13.0,94,0.04,,,0.63,Wunderground v.1.15,2013-02-23 08:33:00,
2013-02-22 22:38:00,66.3,64.5,30.20,ESE,112,5.0,13.0,94,0.00,,,0.63,Wunderground v.1.15,2013-02-23 08:38:00,
2013-02-22 22:44:00,66.3,64.5,30.20,East,88,4.0,12.0,94,0.00,,,0.63,Wunderground v.1.15,2013-02-23 08:44:00,
2013-02-22 22:50:00,66.3,64.5,30.20,SE,146,4.0,12.0,94,0.00,,,0.63,Wunderground v.1.15,2013-02-23 08:50:00,
2013-02-22 22:55:00,66.3,64.8,30.20,SE,134,4.0,12.0,95,0.00,,,0.63,Wunderground v.1.15,2013-02-23 08:55:00,
2013-02-22 23:01:00,66.2,64.4,30.20,ESE,115,3.0,13.0,94,0.00,,,0.64,Wunderground v.1.15,2013-02-23 09:01:00,
2013-02-22 23:07:00,66.0,64.2,30.20,SE,143,4.0,13.0,94,0.00,,,0.64,Wunderground v.1.15,2013-02-23 09:07:00,
2013-02-22 23:12:00,65.9,64.4,30.20,SE,144,5.0,13.0,95,0.00,,,0.64,Wunderground v.1.15,2013-02-23 09:12:00,
2013-02-22 23:18:00,66.0,64.5,30.20,ESE,114,3.0,13.0,95,0.00,,,0.64,Wunderground v.1.15,2013-02-23 09:18:00,
2013-02-22 23:23:00,66.0,64.5,30.20,SE,131,2.0,12.0,95,0.00,,,0.64,Wunderground v.1.15,2013-02-23 09:23:00,
2013-02-22 23:29:00,66.1,64.6,30.19,SSE,149,3.0,12.0,95,0.00,,,0.64,Wunderground v.1.15,2013-02-23 09:29:00,
2013-02-22 23:34:00,66.1,64.6,30.19,SSE,150,4.0,9.0,95,0.00,,,0.64,Wunderground v.1.15,2013-02-23 09:34:00,
2013-02-22 23:40:00,66.2,65.0,30.19,SE,140,4.0,9.0,96,0.00,,,0.64,Wunderground v.1.15,2013-02-23 09:40:00,
2013-02-22 23:46:00,66.2,64.7,30.19,SSE,163,4.0,9.0,95,0.00,,,0.64,Wunderground v.1.15,2013-02-23 09:46:00,
2013-02-22 23:52:00,66.2,64.7,30.19,SE,141,4.0,9.0,95,0.00,,,0.64,Wunderground v.1.15,2013-02-23 09:52:00,
2013-02-22 23:57:00,66.1,64.6,30.19,SSE,157,4.0,9.0,95,0.00,,,0.64,Wunderground v.1.15,2013-02-23 09:57:00,